DW8623 Weather Reports


time (UTC)temp
C
wind
direction
speed
KPH
gust
KPH
rain 1hr
cm
rain 24hr
cm
rain mn
cm
humidity
%
barometer
mb
20260504100545 6 0 0.0 3.2 0.00 0.00 0.00 72 1014.6
20260504081554 3 0 0.0 1.6 0.00 0.00 0.00 82 1015.1
20260504081050 3 0 0.0 3.2 0.00 0.00 0.00 82 1015.2
20260504080545 3 0 0.0 3.2 0.00 0.00 0.00 82 1015.2
20260504050547 3 0 0.0 0.0 0.00 0.00 0.00 81 1015.6
20260504045550 3 0 0.0 0.0 0.00 0.00 0.00 80 1015.6
20260504045047 4 0 0.0 1.6 0.00 0.00 0.00 81 1015.6
20260504044554 4 0 0.0 3.2 0.00 0.00 0.00 81 1015.6
20260504044047 4 0 0.0 3.2 0.00 0.00 0.00 80 1015.5
20260504043547 4 0 1.6 3.2 0.00 0.00 0.00 80 1015.4
20260504043110 4 267 0.0 3.2 0.00 0.00 0.00 80 1015.5
20260504042546 4 0 0.0 4.8 0.00 0.00 0.00 79 1015.5
20260504042048 4 0 1.6 4.8 0.00 0.00 0.00 79 1015.5
20260504041551 4 255 0.0 0.0 0.00 0.00 0.00 78 1015.4
20260504041045 5 0 0.0 0.0 0.00 0.00 0.00 78 1015.4
20260504040548 5 0 0.0 0.0 0.00 0.00 0.00 77 1015.4
20260504040054 5 0 0.0 0.0 0.00 0.00 0.00 77 1015.3
20260504035547 5 0 0.0 1.6 0.00 0.00 0.00 76 1015.2
20260504035047 5 0 0.0 3.2 0.00 0.00 0.00 76 1015.1
20260504034552 5 0 0.0 8.0 0.00 0.00 0.00 75 1015.1
20260504034049 5 1 1.6 8.0 0.00 0.00 0.00 75 1015.1
20260504033547 5 9 3.2 8.0 0.00 0.00 0.00 76 1015.0
20260504033102 5 0 0.0 0.0 0.00 0.00 0.00 75 1015.1
20260504032547 5 0 0.0 0.0 0.00 0.00 0.00 75 1015.2
20260504032047 5 0 0.0 0.0 0.00 0.00 0.00 75 1015.2
20260504031556 5 0 0.0 0.0 0.00 0.00 0.00 75 1015.2
20260504031050 5 0 0.0 0.0 0.00 0.00 0.00 74 1015.1
20260504030546 5 0 0.0 0.0 0.00 0.00 0.00 73 1015.0
20260504025547 6 0 0.0 0.0 0.00 0.00 0.00 71 1015.0
20260504025047 6 0 0.0 0.0 0.00 0.00 0.00 70 1015.0
20260504024550 6 0 0.0 1.6 0.00 0.00 0.00 69 1015.0
20260504024046 6 0 0.0 1.6 0.00 0.00 0.00 70 1015.1
20260504023546 6 0 0.0 1.6 0.00 0.00 0.00 68 1015.0
20260504023053 6 0 0.0 3.2 0.00 0.00 0.00 68 1014.9
20260504022547 7 0 0.0 3.2 0.00 0.00 0.00 67 1014.8
20260504022050 7 273 1.6 3.2 0.00 0.00 0.00 67 1014.9
20260504021552 7 273 1.6 4.8 0.00 0.00 0.00 65 1014.8
20260504021048 7 0 1.6 4.8 0.00 0.00 0.00 65 1014.9
20260504020547 7 0 0.0 0.0 0.00 0.00 0.00 64 1014.8
20260504020057 7 0 0.0 0.0 0.00 0.00 0.00 64 1014.8
20260504015549 7 0 0.0 0.0 0.00 0.00 0.00 64 1014.7
20260504015048 7 0 0.0 0.0 0.00 0.00 0.00 63 1014.7
20260504014554 8 0 0.0 3.2 0.00 0.00 0.00 64 1014.7
20260504014048 8 0 0.0 3.2 0.00 0.00 0.00 62 1014.7
20260504013549 8 195 1.6 6.4 0.00 0.00 0.00 61 1014.7
20260504013053 8 195 1.6 6.4 0.00 0.00 0.00 58 1014.7
20260504012548 8 195 4.8 6.4 0.00 0.00 0.00 59 1014.7
20260504012048 9 0 0.0 0.0 0.00 0.00 0.00 57 1014.6
20260504011556 9 0 0.0 0.0 0.00 0.00 0.00 56 1014.6
20260504011046 9 0 0.0 0.0 0.00 0.00 0.00 55 1014.4
20260504010546 10 0 0.0 0.0 0.00 0.00 0.00 54 1014.4
20260504010059 10 0 0.0 0.0 0.00 0.00 0.00 54 1014.4
20260504005547 10 0 0.0 0.0 0.00 0.00 0.00 52 1014.4
20260504005047 10 0 0.0 0.0 0.00 0.00 0.00 49 1014.4
20260504004548 11 0 0.0 0.0 0.00 0.00 0.00 48 1014.4
20260504004046 11 0 0.0 0.0 0.00 0.00 0.00 48 1014.3
20260504003545 11 0 0.0 0.0 0.00 0.00 0.00 48 1014.2
20260504003050 11 0 0.0 0.0 0.00 0.00 0.00 48 1014.1
20260504002546 11 0 0.0 0.0 0.00 0.00 0.00 49 1014.1
20260504002048 11 0 0.0 3.2 0.00 0.00 0.00 46 1014.1
20260504001556 11 0 0.0 3.2 0.00 0.00 0.00 45 1014.1
20260504001048 11 288 0.0 3.2 0.00 0.00 0.00 43 1014.1
20260504000547 11 288 0.0 3.2 0.00 0.00 0.00 43 1014.1
20260504000058 12 0 0.0 3.2 0.00 0.00 0.00 41 1014.0
20260503235546 12 0 0.0 8.0 0.00 0.00 0.00 41 1013.9
20260503235046 12 0 3.2 8.0 0.00 0.00 0.00 41 1014.0
20260503234556 12 285 0.0 9.7 0.00 0.00 0.00 40 1014.0
20260503234046 13 276 1.6 11.3 0.00 0.00 0.00 38 1014.0
20260503233546 13 289 3.2 11.3 0.00 0.00 0.00 37 1014.0
20260503233052 13 278 4.8 12.9 0.00 0.00 0.00 36 1014.0
20260503232548 14 256 1.6 16.1 0.00 0.00 0.00 36 1013.9
20260503232045 14 255 3.2 16.1 0.00 0.00 0.00 35 1013.8
20260503231552 14 249 8.0 16.1 0.00 0.00 0.00 35 1013.7
20260503231045 15 283 4.8 16.1 0.00 0.00 0.00 36 1013.6
20260503230545 15 0 3.2 16.1 0.00 0.00 0.00 34 1013.6
20260503230110 15 309 4.8 17.7 0.00 0.00 0.00 35 1013.6
20260503225546 15 318 8.0 19.3 0.00 0.00 0.00 34 1013.6
20260503225047 15 49 11.3 19.3 0.00 0.00 0.00 33 1013.7
20260503224552 15 251 8.0 19.3 0.00 0.00 0.00 34 1013.8
20260503224048 15 291 6.4 17.7 0.00 0.00 0.00 36 1013.7
20260503223547 15 286 6.4 17.7 0.00 0.00 0.00 34 1013.6
20260503223107 15 236 6.4 17.7 0.00 0.00 0.00 34 1013.7
20260503222546 15 319 6.4 14.5 0.00 0.00 0.00 33 1013.7
20260503222045 15 265 4.8 20.9 0.00 0.00 0.00 35 1013.7
20260503221556 15 312 9.7 22.5 0.00 0.00 0.00 35 1013.7
20260503221047 15 232 9.7 22.5 0.00 0.00 0.00 35 1013.7
20260503220546 15 273 9.7 22.5 0.00 0.00 0.00 32 1013.7
20260503220053 15 283 6.4 22.5 0.00 0.00 0.00 33 1013.8
20260503215546 15 257 8.0 24.1 0.00 0.00 0.00 33 1013.7
20260503215045 15 296 3.2 24.1 0.00 0.00 0.00 35 1013.8
20260503214558 15 286 4.8 29.0 0.00 0.00 0.00 35 1013.8
20260503214044 15 57 11.3 29.0 0.00 0.00 0.00 32 1013.8
20260503213548 15 249 14.5 29.0 0.00 0.00 0.00 33 1013.8
20260503213049 15 345 6.4 22.5 0.00 0.00 0.00 33 1013.7
20260503212545 15 297 6.4 22.5 0.00 0.00 0.00 34 1013.8
20260503212049 15 14 12.9 25.7 0.00 0.00 0.00 33 1013.7
20260503211551 15 319 11.3 25.7 0.00 0.00 0.00 33 1013.7
20260503211048 15 320 6.4 27.4 0.00 0.00 0.00 32 1013.8
20260503210548 15 241 14.5 35.4 0.00 0.00 0.00 32 1013.8
20260503210049 15 275 9.7 35.4 0.00 0.00 0.00 33 1013.8
20260503205546 16 280 12.9 29.0 0.00 0.00 0.00 31 1013.8
20260503205048 16 17 9.7 20.9 0.00 0.00 0.00 32 1013.8
20260503204550 16 34 3.2 24.1 0.00 0.00 0.00 32 1013.8
20260503204045 16 302 8.0 24.1 0.00 0.00 0.00 32 1013.7
20260503203547 15 357 11.3 24.1 0.00 0.00 0.00 32 1013.8
20260503203053 15 276 4.8 24.1 0.00 0.00 0.00 32 1013.9
20260503202550 15 297 9.7 24.1 0.00 0.00 0.00 31 1013.9
20260503202046 15 292 6.4 24.1 0.00 0.00 0.00 35 1013.9
20260503201552 15 5 6.4 24.1 0.00 0.00 0.00 32 1013.9
20260503201045 15 263 12.9 24.1 0.00 0.00 0.00 34 1014.1
20260503200544 15 195 8.0 24.1 0.00 0.00 0.00 33 1013.9
20260503200049 15 268 6.4 16.1 0.00 0.00 0.00 33 1014.1
20260503195548 15 0 6.4 25.7 0.00 0.00 0.00 31 1014.2
20260503195045 15 45 12.9 25.7 0.00 0.00 0.00 33 1014.3
20260503194606 14 281 12.9 24.1 0.00 0.00 0.00 31 1014.3
20260503194049 15 323 9.7 27.4 0.00 0.00 0.00 35 1014.6
20260503193544 15 305 14.5 35.4 0.00 0.00 0.00 34 1014.6
20260503193050 15 255 11.3 35.4 0.00 0.00 0.00 34 1014.7
20260503192548 15 240 16.1 33.8 0.00 0.00 0.00 32 1014.8
20260503192047 15 61 9.7 30.6 0.00 0.00 0.00 33 1014.7
20260503191557 15 315 19.3 30.6 0.00 0.00 0.00 34 1014.7
20260503191049 15 295 6.4 30.6 0.00 0.00 0.00 33 1014.8
20260503190546 15 267 11.3 30.6 0.00 0.00 0.00 35 1014.8
20260503190053 14 288 11.3 24.1 0.00 0.00 0.00 40 1014.8
20260503185545 13 253 6.4 24.1 0.00 0.00 0.00 37 1014.8
20260503185045 13 268 6.4 29.0 0.00 0.00 0.00 37 1015.0
20260503184551 13 324 6.4 29.0 0.00 0.00 0.00 39 1015.0
20260503184048 13 354 11.3 22.5 0.00 0.00 0.00 42 1015.0
20260503183544 13 332 9.7 25.7 0.00 0.00 0.00 36 1015.1
20260503183057 14 261 12.9 29.0 0.00 0.00 0.00 35 1015.1
20260503182548 14 277 11.3 29.0 0.00 0.00 0.00 37 1015.2
20260503182049 14 307 11.3 27.4 0.00 0.00 0.00 37 1015.1
20260503181602 13 342 6.4 27.4 0.00 0.00 0.00 36 1015.1
20260503181050 13 3 11.3 27.4 0.00 0.00 0.00 37 1015.2
20260503180548 13 311 12.9 37.0 0.00 0.00 0.00 37 1015.2
20260503180053 13 315 11.3 37.0 0.00 0.00 0.00 37 1015.2
20260503175549 13 302 14.5 40.2 0.00 0.00 0.00 39 1015.4
20260503175048 13 191 14.5 40.2 0.00 0.00 0.00 39 1015.3
20260503174556 13 249 14.5 35.4 0.00 0.00 0.00 41 1015.3
20260503174045 12 255 6.4 20.9 0.00 0.00 0.00 44 1015.4
20260503173547 12 351 4.8 22.5 0.00 0.00 0.00 39 1015.4
20260503173052 13 251 12.9 22.5 0.00 0.00 0.00 44 1015.4
20260503172546 12 308 11.3 22.5 0.00 0.00 0.00 43 1015.5
20260503172045 12 261 6.4 27.4 0.00 0.00 0.00 42 1015.6
20260503171548 12 332 9.7 27.4 0.00 0.00 0.00 38 1015.6
20260503171047 12 226 6.4 35.4 0.00 0.00 0.00 40 1015.5
20260503170547 11 267 6.4 35.4 0.00 0.00 0.00 41 1015.7
20260503150549 10 3 9.7 25.7 0.00 0.00 0.00 45 1016.3
20260503131046 7 310 11.3 25.7 0.00 0.00 0.00 53 1016.5
20260503130547 7 303 9.7 25.7 0.00 0.00 0.00 54 1016.4
20260503120107 6 301 6.4 16.1 0.00 0.00 0.00 65 1016.1
20260503110545 3 259 4.8 9.7 0.00 0.00 0.00 75 1015.5